Home > Weather > Kornwestheim > Past weeks

Flag for Germany Weather for the Past 2 Weeks in Kornwestheim, Baden-Württemberg, Germany

Now
43 °F

Partly cloudy.


Feels Like: 40 °F
Forecast: 39 / 46 °F
Wind: 5 mph from South

Location: Stuttgart-Echterdingen

Current Time: Feb 13, 2016 at 7:17:34 PM

Latest Report: Feb 13, 2016 at 6:50 PM


Visibility: N/A

Pressure: 29.12 "Hg

Humidity: 87%

Dew point: 39 °F

Location of KornwestheimLocation

Historic Weather in Kornwestheim — Graph

°F

Kornwestheim Temperature Yesterday

Maximum temperature yesterday: 43 °F (at 12:20 PM)
Minimum temperature yesterday: 32 °F (at 7:50 AM)
Average temperature yesterday: 38 °F

High & Low Weather Summary for the Past Weeks

 TemperatureHumidityPressure
High57 °F (Feb 6, 1:20 PM)100% (Jan 31, 4:50 PM)30.39 "Hg (Jan 31, 4:50 PM)
Low32 °F (Feb 6, 4:20 AM)44% (Feb 6, 1:20 PM)29.12 "Hg (Feb 13, 4:50 PM)
Average42 °F81%29.87 "Hg
* Reported Jan 29 5:20 PM — Feb 13 5:50 PM, Kornwestheim, Weather by CustomWeather, © 2016

Note: Actual official high and low records may vary slightly from our data, if they occured in-between our weather recording intervals... More about our weather records

Advertising

Kornwestheim Weather History for the Previous 24 Hours

 ConditionsComfort  
Time TempWeatherWind HumidityBarometerVisibility
5:50 PM
Sat, Feb 13
45 °FLight rain. Partly cloudy.12 mph81%29.15 "HgN/A
5:20 PM43 °FLight rain. Broken clouds.2 mph87%29.12 "HgN/A
4:50 PM43 °FPartly sunny.6 mph87%29.12 "HgN/A
4:20 PM43 °FLight rain. Partly sunny.6 mph87%29.15 "HgN/A
3:50 PM43 °FLight rain. Partly sunny.6 mph81%29.18 "HgN/A
3:20 PM45 °FLight rain. Partly sunny.7 mph76%29.18 "HgN/A
2:50 PM45 °FLight rain. Partly sunny.5 mph81%29.21 "HgN/A
2:20 PM45 °FLight rain. Partly sunny.3 mph81%29.21 "HgN/A
1:50 PM45 °FPartly sunny.3 mph81%29.21 "HgN/A
1:20 PM45 °FBroken clouds.6 mph81%29.24 "HgN/A
12:50 PM43 °FBroken clouds.5 mph81%29.24 "HgN/A
12:20 PM43 °FScattered showers. Broken clouds.3 mph87%29.27 "HgN/A
11:50 AM41 °FDrizzle. Broken clouds.3 mph87%29.30 "HgN/A
11:20 AM41 °FPartly sunny.5 mph87%29.30 "HgN/A
10:50 AM39 °FPartly sunny.3 mph87%29.30 "HgN/A
10:20 AM39 °FScattered clouds.5 mph87%29.33 "HgN/A
9:50 AM39 °FBroken clouds.6 mph87%29.33 "HgN/A
9:20 AM39 °FBroken clouds.5 mph87%29.33 "HgN/A
8:50 AM39 °FPartly sunny.3 mph87%29.33 "HgN/A
8:20 AM37 °FPartly sunny.3 mph93%29.33 "HgN/A
7:50 AM37 °FDrizzle. Partly sunny.5 mph93%29.33 "HgN/A
7:20 AM37 °FPassing clouds.2 mph93%29.33 "HgN/A
6:50 AM37 °FPartly cloudy.2 mph87%29.33 "HgN/A
6:20 AM37 °FPassing clouds.2 mph87%29.33 "HgN/A
5:50 AM37 °FPassing clouds.2 mph87%29.33 "HgN/A
5:20 AM37 °FPassing clouds.2 mph87%29.33 "HgN/A
4:20 AM37 °FLight rain. Passing clouds.7 mph87%29.33 "HgN/A
3:20 AM37 °FPassing clouds.3 mph87%29.33 "HgN/A
2:50 AM37 °FPassing clouds.1 mph87%29.33 "HgN/A
2:20 AM37 °FPassing clouds.2 mph87%29.33 "HgN/A
1:50 AM37 °FPassing clouds.1 mph81%29.30 "HgN/A
1:20 AM37 °FPassing clouds.2 mph81%29.30 "HgN/A
12:50 AM37 °FPassing clouds.2 mph81%29.30 "HgN/A
12:20 AM37 °FPassing clouds.1 mph81%29.30 "HgN/A
11:50 PM
Fri, Feb 12
37 °FLight rain. Passing clouds.3 mph81%29.30 "HgN/A
11:20 PM39 °FPartly cloudy.6 mph75%29.33 "HgN/A
10:20 PM39 °FPassing clouds.6 mph70%29.33 "HgN/A
9:50 PM39 °FPartly cloudy.5 mph70%29.33 "HgN/A
9:20 PM39 °FPassing clouds.5 mph70%29.33 "HgN/A
8:50 PM39 °FPartly cloudy.2 mph75%29.33 "HgN/A
8:20 PM39 °FPartly cloudy.5 mph70%29.36 "HgN/A
7:50 PM39 °FPartly cloudy.3 mph75%29.36 "HgN/A
7:20 PM39 °FPartly cloudy.6 mph75%29.36 "HgN/A
Weather by CustomWeather, © 2016

See weather overviewHow to use our weather pages